SAUDICOMSAT 6

Last updated on Sun Jun 21 2026 00:03:22 GMT+0000 (Coordinated Universal Time)

1 31121U 07012E 26171.44252921 .00000420 00000+0 90139-4 0 9995 2 31121 98.4099 139.0195 0070869 317.5249 42.0481 14.62561600 20662
UTC large
Height (km)
Speed (km/s)
/
Latitude / Longitude
Inclination (degrees)
Orbital Period (minutes)
Azimuth
Elevation
Range (km)
Doppler Factor

Next 0 passes for location: London (51.5072 / 0.1276)

No passes found over London.
SAUDICOMSAT 6